Terminal Aerodrome Forecast
Issued by NWS

Home | Current Version | Previous Version | Text Only | Print | Product List | Glossary On
Versions: 1 2 3 4 5 6 7 8 9 10 11 12 13 14 15 16 17 18 19 20 21 22 23 24 25 26 27 28 29 30 31 32 33 34 35 36 37 38 39 40 41 42 43 44 45
000
FTUS45 KBOU 070249 AAB
TAFBJC
TAF AMD
KBJC 070249Z 0703/0724 VRB03KT 3SM -DZ BR BKN009 OVC030
     FM070500 12006KT 4SM BR BKN010 OVC030
     FM070900 15008KT 4SM BR OVC010
     FM071500 15012KT P6SM FEW010 SCT050 SCT100
     FM071800 15012KT P6SM VCSH SCT050 BKN120
     FM072100 15012KT P6SM VCTS SCT050CB BKN080
      TEMPO 0722/0724 5SM -TSRA BKN050CB=

USA.gov is the U.S. government's official web portal to all federal, state and local government web resources and services.